Location: Manchester NH
(43.0000°N, 71.5000°W)
Time: 19:35:08
(UTC-04:00)

Courier 1B - Visible Passes

Search period start: 28 May 2022 00:00
Search period end: 07 June 2022 00:00
Orbit: 962 x 1209 km, 28.3° (Epoch: 28 May)

Date Brightness Start Highest point End Pass type
(mag) Time Alt. Az. Time Alt. Az. Time Alt. Az.
28 May 9.1 22:15:41 10° WSW 22:20:13 18° SSW 22:21:20 17° S visible
29 May 9.1 21:21:28 10° WSW 21:26:40 21° SSW 21:30:46 13° SSE visible
30 May 9.4 22:22:58 10° SW 22:26:01 13° SSW 22:27:03 13° SSW visible
31 May 9.4 21:28:10 10° WSW 21:32:30 16° SSW 21:36:27 11° SSE visible
02 Jun 9.7 21:36:09 10° SW 21:38:15 11° SSW 21:40:19 10° S visible
